DMSP 5D-2 F13 DEB, 40403

Orbit data source: Space-Track

DMSP 5D-2 F13 DEB, 40403 is space debris in SSO originally from a launch on Fri, 24 Mar 1995 UTC launched from the Air Force Western Test Range (AFWTR). Debris objects in space refer to the collection of defunct objects orbiting the Earth. Examples of debris include non-operational satellites, rocket bodies, and fragments generated from explosions, collisions, or faulty payload assembly.

Loading next visibility...
Identifier
40403, 1995-015Q
Orbit
SSO
Country
Flag of USUS
Related business
Manufacturer
Unknown
Mission
Spacecraft
Bus & Motor
Unknown
Mass
Unknown
Launch date (UTC)
1995-03-24 (31 years ago)
Launch vehicle
Unknown
Launch site
Air Force Western Test Range (AFWTR)
Object type
Payload
Rocket body
Debris
Shape & HBR
Unknown shape, 0.1 m
Radar Cross Section
Small (<0.1 m²)

Expand to show TLE details & history
Last TLE update: 9 hours ago

TLE from 9 hours ago
0 DMSP 5D-2 F13 DEB
1 40403U 95015Q   26035.49144182  .00002817  00000-0  10948-2 0  9992
2 40403  98.6786  63.1926 0012386  58.3560 301.8829 14.30616206567807
Epoch: 2026-02-04T11:47Z
TLE epoch observation values (Epoch: 2026-02-04T11:47:40.573Z)
Latitude
-0.00002°
Longitude
111.61629°
Altitude
787.92 km
Speed
7.462 km/s
True Right ascension
04h 12m 46s
True Declination
0° 00' 00"
Sunlit
Object was in daylight at epoch
Visualization orbit readout
Latitude
Unknown
Longitude
Unknown
Altitude
Unknown
Speed
Unknown
Apparent Right ascension
Unknown
Apparent Declination
Unknown
Sunlit
N/A
Visualization observer readout
Local Sidereal Time
22:20:27
Azimuth
Unknown
Elevation
Unknown
Doppler factor
Unknown
Orbital elements
Apogee altitude
795.689 km
Perigee altitude
777.94 km
Semi-major axis
7,164.952 km
Eccentricity
0.00124
Inclination
98.6786°
RAAN
63.1926°
Arg. of periapsis
58.356°
True anomaly
301.76228°
Mean anomaly
301.8829°
Eccentric anomaly
301.8226°
Mean motion
3.57868 °/min
Orbital period
100.6 mins
BSTAR
0.0010948
Loading maneuver chart data...
Computing Atmospheric mass density...

Documentation

Showing up to 5 results
|